Regional Weather Roundup
Issued by NWS

Home | Current Version | Previous Version | Text Only | Print | Product List | Glossary Off
Versions: 1 2 3 4 5 6 7 8 9 10 11 12 13 14 15 16 17 18 19 20 21 22 23 24 25 26 27 28 29 30 31 32 33 34 35 36 37 38 39 40 41 42 43 44 45 46 47 48 49 50

000
ASUS43 KMPX 261201
RWRMN
WEATHER ROUNDUP FOR MINNESOTA
NATIONAL WEATHER SERVICE TWIN CITIES/CHANHASSEN MN
700 AM CDT THU APR 26 2018


NOTE: "FAIR" INDICATES FEW OR NO CLOUDS BELOW 12,000 FEET WITH NO
SIGNIFICANT WEATHER AND/OR OBSTRUCTIONS TO VISIBILITY. N/A MEANS
CURRENT SKY AND/OR WEATHER CONDITIONS ARE NOT AVAILABLE.

MNZ060>063-068>070-261300-
   Twin Cities Metro

CITY           SKY/WX    TMP DP  RH WIND       PRES   REMARKS
TWIN CITIES    MOCLDY    46  35  65 S7        29.87F
6HR MIN TEMP:  45; 6HR MAX TEMP:  48;

ST PAUL        FAIR      40  35  83 SE5       29.88F
CRYSTAL        FAIR      44  33  65 S7        29.85S
BLAINE         MOCLDY    46  36  66 SW8       29.86S
LAKEVILLE      FAIR      37  34  87 CALM      29.88S
EDEN PRAIRIE   FAIR      42  34  73 S9        29.86F
6HR MIN TEMP:  40; 6HR MAX TEMP:  45;

SOUTH ST PAUL  FAIR      41  33  74 SE3       29.88S
LAKE ELMO      FAIR      39  34  81 S6        29.88S
$$
MNZ001>005-007-008-013>017-022>024-027-028-261300-
   Northwest Minnesota

CITY           SKY/WX    TMP DP  RH WIND       PRES   REMARKS
BEMIDJI        FAIR      41  33  73 NW14      29.86R
HALLOCK        FAIR      36  28  75 N13       29.99R
ROSEAU         FAIR      36  30  80 NW7       29.92R
WARROAD        FAIR      36  30  80 NW8       29.91R
THIEF RVR FALL FAIR      39  29  67 NW16      29.94R
CROOKSTON      FAIR      37  30  75 N17       29.97R
FOSSTON        FAIR      36  30  80 NW8       29.92R
DETROIT LAKES  FAIR      41  34  75 N8G23     29.90R
MOORHEAD       FAIR      39  30  70 N17       29.94R
PARK RAPIDS    FAIR      40  33  76 N9        29.85R
MAHNOMEN       FAIR      39  32  76 N12       29.90R
$$
MNZ006-009>011-018-025>026-261300-
   North Central Minnesota

CITY           SKY/WX    TMP DP  RH WIND       PRES   REMARKS
BAUDETTE       FAIR      40  35  83 NW13      29.87R
FLAG ISLAND    FAIR      37  34  87 NW13      29.89R
INTL FALLS     FAIR      43  36  76 N16       29.82R
6HR MIN TEMP:  35; 6HR MAX TEMP:  46;

WASKISH        FAIR      37  34  87 NW5       29.86R
BIG FORK       FAIR      43  34  70 N3        29.80R
LONGVILLE      MOCLDY    39  32  75 NW7       29.82R
GRAND RAPIDS   MOCLDY    43  31  62 W10       29.81R
CRANE LAKE     MOCLDY    34  28  80 CALM      29.79R
ORR            CLOUDY    39  27  60 NW3       29.75R
COOK           FAIR      41  30  65 W6        29.78R
WALKER         FAIR      41  33  73 NW10G16   29.85R
$$
MNZ012-019>021-037-261300-
   Northeast Minnesota

CITY           SKY/WX    TMP DP  RH WIND       PRES   REMARKS
DULUTH         FAIR      43  30  60 SW14      29.78F
6HR MIN TEMP:  41; 6HR MAX TEMP:  45;

ELY            FAIR      39  27  60 CALM      29.76R
HIBBING        MOCLDY    31  27  85 CALM      29.77S
EVELETH        FAIR      33  28  80 CALM      29.78S
DULUTH HARBOR  FAIR      37  30  75 S7        29.80F
TWO HARBORS    FAIR      37  28  70 SW3       29.77S
SILVER BAY     FAIR      34  28  80 CALM      29.76F
GRAND MARAIS     N/A     32  26  78 CALM      29.78S
G MARAIS ARPRT FAIR      37  19  48 CALM      29.75F
$$
MNZ029>031-032-039>041-046>048-054>057-064-261300-
   West Central Minnesota

CITY           SKY/WX    TMP DP  RH WIND       PRES   REMARKS
FERGUS FALLS   FAIR      43  36  75 N15       29.85R
WHEATON        CLOUDY    43  34  70 NW15      29.91R
MORRIS         CLOUDY    43  36  75 NW13      29.83R
ALEXANDRIA     FAIR      42  31  64 W7        29.84R
ELBOW LAKE     FAIR      39  35  84 NW13G18   29.85R
WADENA         FAIR      39  32  75 NW9       29.84R
GLENWOOD       FAIR      39  34  81 W6        29.83R
APPLETON       CLOUDY    45  36  70 W10       29.84R
BENSON         CLOUDY    39  34  81 W6        29.85R
ORTONVILLE     CLOUDY    45  36  70 N15G22    29.86R
WILLMAR        FAIR      36  32  87 CALM      29.86R
$$
MNZ033>034-036-042>043-049>051-058-059-261300-
   Central Minnesota

CITY           SKY/WX    TMP DP  RH WIND       PRES   REMARKS
ST CLOUD       FAIR      38  33  82 SE8       29.82S
6HR MIN TEMP:  36; 6HR MAX TEMP:  42;

SAUK CENTRE    PTSUNNY   42  32  69 W6        29.83R
PAYNESVILLE    FAIR      41  33  74 SW6       29.83S
AITKIN         FAIR      30  27  86 CALM      29.80R
PINE RIVER     FAIR      30  27  86 CALM      29.86R
BRAINERD       FAIR      39  30  70 SW6       29.82R
STAPLES        MOCLDY    36  30  80 W5        29.83R
LONG PRAIRIE   CLOUDY    41  32  70 SW5       29.83R
LITTLE FALLS   FAIR      37  27  65 CALM      29.83R
LITCHFIELD     FAIR      41  34  75 CALM      29.84S
BUFFALO        FAIR      41  33  72 S5        29.86S
MAPLE LAKE     FAIR      42  35  77 S6        29.85S
HUTCHINSON     FAIR      37  34  90 CALM      29.86S
$$
MNZ037-044-045-052-053-261300-
   East Central Minnesota

CITY           SKY/WX    TMP DP  RH WIND       PRES   REMARKS
PRINCETON      FAIR      41  34  75 CALM      29.85R
MORA           FAIR      34  32  93 S5        29.84F WCI  30
CAMBRIDGE      FAIR      43  30  61 S7        29.85R
RUSH CITY      FAIR      37  31  78 S3        29.85S
MOOSE LAKE     FAIR      34  30  86 SW3       29.80R
HINCKLEY       FAIR      32  30  93 CALM      29.82F
CLOQUET        FAIR      39  28  65 SW9       29.79F
MCGREGOR       FAIR      39  32  75 SW3       29.80S
$$
MNZ071>073-080-081-089-090-097-098-261300-
   Southwest Minnesota

CITY           SKY/WX    TMP DP  RH WIND       PRES   REMARKS
MONTEVIDEO     CLOUDY    43  34  70 W6        29.84S
GRANITE FALLS  CLOUDY    40  34  80 SW5       29.87R
CANBY          CLOUDY    48  34  57 W15G24    29.87R
MARSHALL       CLOUDY    46  33  60 W17       29.85R
REDWOOD FALLS  CLOUDY    37  33  85 CALM      29.85R
OLIVIA         CLOUDY    39  32  75 S7        29.84R
PIPESTONE      CLOUDY   N/A N/A N/A SW8       29.86R
WINDOM         CLOUDY    43  23  45 S8        29.87F
WORTHINGTON    CLOUDY    43  32  65 SW20      29.87F
JACKSON        CLOUDY    39  32  75 SW9       29.90R
TRACY          CLOUDY    45  34  64 SW18      29.83R
SLAYTON        MOCLDY    42  32  68 SW15      29.85F
$$
MNZ065>067-074>077-082>085-091>093-261300-
   South Central Minnesota

CITY           SKY/WX    TMP DP  RH WIND       PRES   REMARKS
MANKATO        FAIR      40  34  79 S6        29.89S
NEW ULM        CLOUDY    37  34  87 S7        29.87S
ST JAMES       CLOUDY    39  34  81 S6        29.89R
FAIRMONT       CLOUDY    40  33  76 SW9       29.90R
GLENCOE        FAIR      41  35  80 S6        29.86R
OWATONNA       FAIR      39  36  87 S7        29.90R
WASECA         FAIR      37  32  81 SW7       29.91R
ALBERT LEA     FAIR      39  34  81 CALM      29.90S
$$
MNZ078>079-086>088-094>096-261300-
   Southeast Minnesota

CITY           SKY/WX    TMP DP  RH WIND       PRES   REMARKS
ROCHESTER      FAIR      36  33  89 S7        29.90S
6HR MIN TEMP:  34; 6HR MAX TEMP:  41;

RED WING       FAIR      34  28  80 CALM      29.89S
STANTON        FAIR      38  32  78 CALM      29.88S
DODGE CENTER   FAIR      45  34  65 S12G18    29.89S
WINONA         FAIR      36  32  87 CALM      29.90R
AUSTIN         FAIR      39  34  81 S3        29.90F
PRESTON        FAIR      38  32  78 SW8       29.92R
$$
ABBREVIATIONS USED IN REMARKS
   TC - TEMPERATURES IN CELSIUS
  WCI - WIND CHILL INDEX
   HX - HEAT INDEX
  VSB - VISIBILITY
$$



USA.gov is the U.S. government's official web portal to all federal, state and local government web resources and services.